sat.trackr.live / text

‹ back to catalog

STARLINK-11088 [DTC]

NORAD 59709 · 2024-088B

PAYLOAD ACTIVE UNKNOWN

§ Identity

Operator
Country
US
Launch date
2024-05-10
Launch site
AFWTR
Launch vehicle
Mass (kg)
RCS (m²)

Purposes: comms

External: N2YO · Heavens-Above · Gunter

§ Orbital elements

Epoch: 2026-05-24T17:54:46.259136Z

Period
91.74 min
Inclination
53.1576°
Eccentricity
0.0000901
Mean motion
15.69704028 rev/d
Perigee alt
359.1 km
Apogee alt
360.4 km
Semi-major
6,737.9 km
B*
2.4998e-5
RAAN
311.6457°
Arg perigee
88.4196°
Mean anomaly
271.6925°
Rev number
11,821

§ Raw data

STARLINK-11088 [DTC]1 59709U 24088B   26144.74636874  .00002440  00000+0  24998-4 0  99992 59709  53.1576 311.6457 0000901  88.4196 271.6925 15.69704028118219

JSON: /api/v1/satellites/59709 · /tle

For live sub-satellite position, see the globe view (requires WebGL).

§ Visibility from observer

Set your observer location to see the next 7 days of passes ≥ 10°. The values pass through the URL so the page stays shareable.

No JS? Fill the form by hand. The geolocation button needs JavaScript.